Flag for U.S.A. Weather past 2 weeks in Midway, Midway Atoll, U.S.A.

Now
86 °F

Partly sunny.


Feels Like: 95 °F
Forecast: 80 / 88 °F
Wind: 10 mph from East

Location: Midway Island Naval Air Facility

Current Time: Sep 14, 2014 at 5:15:16 PM

Latest Report: Sep 14, 2014 at 4:28 PM


Visibility: 10 mi

Pressure: 30.05 "Hg

Humidity: 70%

Dew point: 75 °F

Location of MidwayLocation

Historic Weather in Midway — Graph

°F

Midway temperature yesterday

Maximum temperature yesterday: 89 °F (at 10:56 AM)
Minimum temperature yesterday: 76 °F (at 5:56 AM)
Average temperature yesterday: 83 °F

Past Weeks' High & Low Weather Summary

 TemperatureHumidityPressure
High91 °F (Sep 11, 10:35 AM)96% (Sep 3, 9:56 PM)31.00 "Hg (Sep 3, 9:56 PM)
Low72 °F (Aug 30, 7:56 PM)55% (Sep 1, 11:56 AM)29.96 "Hg (Sep 6, 5:47 AM)
Average82 °F76%30.82 "Hg
* Reported Aug 30 4:56 PM — Sep 14 4:28 PM, Midway, Weather by CustomWeather, © 2014

Note: Actual official high and low records may vary slightly from our data, if they occured in-between our weather recording intervals... More about our weather records

Advertising

Midway weather history for previous 24 hours

 ConditionsComfort  
Time TempWeatherWind HumidityBarometerVisibility
4:28 PM
Sep 14
86 °FPartly sunny.10 mph70%30.05 "Hg10 mi
3:56 PM89 °FScattered clouds.8 mph66%30.94 "Hg10 mi
2:56 PM89 °FScattered clouds.13 mph66%30.95 "Hg10 mi
1:56 PM90 °FPassing clouds.9 mph61%30.95 "Hg10 mi
12:56 PM90 °FPassing clouds.14 mph63%30.96 "Hg10 mi
11:56 AM90 °FScattered clouds.13 mph63%30.98 "Hg10 mi
10:56 AM90 °FSunny.13 mph63%30.99 "Hg10 mi
9:56 AM89 °FPassing clouds.13 mph66%30.99 "Hg10 mi
9:25 AM88 °FScattered clouds.13 mph66%30.08 "Hg10 mi
9:16 AM88 °FBroken clouds.15 mph66%30.08 "Hg10 mi
8:56 AM86 °FPassing clouds.13 mph75%30.98 "Hg10 mi
7:56 AM84 °FPassing clouds.14 mph80%30.97 "Hg10 mi
6:56 AM81 °FSunny.14 mph85%30.96 "Hg10 mi
5:56 AM81 °FPassing clouds.13 mph85%30.95 "Hg10 mi
4:56 AM81 °FPassing clouds.12 mph85%30.94 "Hg10 mi
3:56 AM81 °FClear.12 mph85%30.93 "Hg10 mi
2:56 AM82 °FClear.10 mph82%30.94 "Hg10 mi
1:56 AM82 °FPassing clouds.10 mph82%30.95 "Hg10 mi
12:56 AM81 °FPassing clouds.12 mph85%30.95 "Hg10 mi
11:56 PM
Sep 13
81 °FPassing clouds.10 mph85%30.96 "Hg10 mi
10:56 PM81 °FPassing clouds.13 mph85%30.97 "Hg10 mi
9:56 PM81 °FClear.13 mph85%30.97 "Hg10 mi
8:56 PM81 °FClear.9 mph82%30.96 "Hg10 mi
7:56 PM82 °FPassing clouds.10 mph79%30.95 "Hg10 mi
6:56 PM82 °FPassing clouds.9 mph82%30.93 "Hg10 mi
5:56 PM84 °FPassing clouds.8 mph74%30.93 "Hg10 mi
Weather by CustomWeather, © 2014

See weather overviewHow to use our weather pages